Regional Weather Roundup
Issued by NWS Bismarck, ND

Home | Current Version | Previous Version | Text Only | Print | Product List | Glossary On
Versions: 1 2 3 4 5 6 7 8 9 10 11 12 13 14 15 16 17 18 19 20 21 22 23 24 25 26 27 28 29 30 31 32 33 34 35 36 37 38 39 40 41 42 43 44 45 46 47 48 49 50
863
ASUS43 KBIS 240102
RWRBIS

NWR BROADCAST TEXT
NATIONAL WEATHER SERVICE BISMARCK ND
700 PM CST THU FEB 23 2017

NOTE: "FAIR" INDICATES FEW OR NO CLOUDS BELOW 12,000 FEET WITH NO
SIGNIFICANT WEATHER AND/OR OBSTRUCTIONS TO VISIBILITY.


CITY           SKY/WX    TMP DP  RH WIND       PRES   REMARKS
WILLISTON      FAIR      23  14  68 NE6       30.12R WCI  16
MINOT          FAIR      21  16  81 N6        30.12R WCI  13
MINOT AFB      FAIR      21  15  79 NW6       30.12R WCI  13
BISMARCK       FAIR      24  18  77 N12       30.09R WCI  13
DICKINSON      CLOUDY    21  16  81 NE12      30.04R WCI   9
GARRISON         N/A     19  11  70 N6        30.10R WCI  11
HETTINGER ARPT CLOUDY    27  24  89 NE10      30.02R WCI  17
JAMESTOWN      CLOUDY    25  21  85 NE14      30.06R WCI  13
CARRINGTON     MIX PCPN  27  21  80 NE14      30.10R WCI  15
HAZEN          CLOUDY   N/A N/A N/A NE6       30.13R
MANDAN         FAIR      23  18  80 N12       30.08R WCI  12
STANLEY        FAIR      19  14  79 N5        30.12S WCI  13
WATFORD CITY   FAIR      19  14  79 NE7       30.11R WCI  10
$$

CITY           SKY/WX    TMP DP  RH WIND       PRES   REMARKS
GRAND FORKS    CLOUDY    24  12  60 N13       30.13R WCI  12
GRAND FORKS AF CLOUDY    22  15  75 NE10      30.13S WCI  11
DEVILS LAKE    FAIR      21  17  84 N6        30.11R WCI  13
FARGO          CLOUDY    25  17  72 N18       30.09R WCI  11
CAVALIER         N/A     19  16  86 N6        30.15S WCI  11
GRAFTON        FAIR      21  18  86 N9        30.16R WCI  11
GWINNER        CLOUDY    28  25  86 N17G24    30.04S WCI  16
ROLLA          FAIR      16  14  93 NW6       30.11R WCI   7
$$

CITY           SKY/WX    TMP DP  RH WIND       PRES   REMARKS
ABERDEEN       CLOUDY    28  20  71 NE20      30.00S WCI  15
MOBRIDGE       CLOUDY    32  22  66 NE14G21   29.98R
BUFFALO          N/A     28  25  88 NE17      29.92R WCI  16
RAPID CITY     LGT SNOW  27  24  89 N10       29.93R FOG     WCI  17
GLASGOW        CLOUDY    26  20  77 E12       30.10R WCI  16
SIDNEY         FLURRIES  26  22  84 NE13      30.11R WCI  15
WOLF POINT     CLOUDY    28  19  69 E8        30.12R WCI  20
GLENDIVE       CLOUDY    27  24  89 NE10      30.07R WCI  17
MILES CITY     CLOUDY    30  25  81 NE8       30.03R
BAKER          CLOUDY    26  23  88 NE13      30.03R WCI  15
$$

CITY           SKY/WX    TMP DP  RH WIND       PRES   REMARKS
BILLINGS       CLOUDY    27  22  81 NE9       29.97R WCI  18
GREAT FALLS    CLOUDY    25  21  85 N9        29.98R WCI  15
$$





USA.gov is the U.S. government's official web portal to all federal, state and local government web resources and services.